Location: Acton
(51.4942°N, 0.2232°W)
Time: 03:20:11
(UTC+00:00)

ISS - Visible Passes

Search period start: 21 January 2022 00:00
Search period end: 31 January 2022 00:00
Orbit: 413 x 422 km, 51.6° (Epoch: 20 January)

Date Brightness Start Highest point End Pass type
(mag) Time Alt. Az. Time Alt. Az. Time Alt. Az.
21 Jan -2.5 18:01:57 10° SSW 18:04:51 27° SSE 18:05:54 23° ESE visible
21 Jan -0.8 19:38:01 10° WSW 19:38:51 17° WSW 19:38:51 17° WSW visible
22 Jan -1.9 17:14:31 10° SSW 17:17:01 20° SE 17:19:31 10° E visible
22 Jan -3.3 18:50:04 10° WSW 18:52:53 55° SSW 18:52:53 55° SSW visible
23 Jan -3.3 18:02:10 10° SW 18:05:24 50° SSE 18:06:53 27° E visible
23 Jan -1.0 19:38:45 10° W 19:39:49 19° W 19:39:49 19° W visible
24 Jan -2.8 17:14:21 10° SW 17:17:28 37° SSE 17:20:35 10° E visible
24 Jan -3.6 18:50:43 10° W 18:53:46 72° W 18:53:46 72° W visible
25 Jan -3.8 18:02:42 10° WSW 18:06:02 78° SSE 18:07:41 27° E visible
25 Jan -1.1 19:39:28 10° W 19:40:37 20° W 19:40:37 20° W visible
26 Jan -3.5 17:14:41 10° WSW 17:18:00 64° SSE 17:21:19 10° E visible
26 Jan -3.7 18:51:24 10° W 18:54:32 76° WNW 18:54:32 76° WNW visible
27 Jan -3.8 18:03:18 10° W 18:06:40 86° N 18:08:26 26° E visible
27 Jan -1.1 19:40:06 10° W 19:41:22 21° W 19:41:22 21° W visible
28 Jan -3.7 17:15:13 10° W 17:18:34 88° S 17:21:56 10° E visible
28 Jan -3.8 18:52:00 10° W 18:55:16 79° SW 18:55:16 79° SW visible
29 Jan -3.8 18:03:54 10° W 18:07:15 90° WNW 18:09:13 23° E visible
29 Jan -1.2 19:40:43 10° W 19:42:09 22° W 19:42:09 22° W visible
30 Jan -3.3 18:52:34 10° W 18:55:50 52° SSW 18:56:07 50° S visible
